Hourly Data Report for October 23, 2015

All times are specified in Local Standard Time (LST). Add 1 hour to adjust for Daylight Saving Time where and when it is observed.

BATHURST A
NEW BRUNSWICK

47°37'47.000" N
65°44'20.000" W
58.80 m
8100505
71574
ZBF

Download Data

Hourly Data (October 2015)
Hourly Data Report for October 23, 2015
Temp Definition
°C
Dew Point Temp Definition
°C
Rel Hum Definition
%
Wind Dir Definition
10's deg

Wind Spd Definition
km/h
Visibility Definition
km
Stn Press Definition
kPa
Hmdx Definition


Wind Chill Definition


Weather Definition


TIME
00:00 Legend Double Dagger 6.4 4.7 89 29 10 24.1 100.26     LegendNANA
01:00 Legend Double Dagger 5.3 4.0 91 26 9 24.1 100.24     LegendNANA
02:00 Legend Double Dagger 4.8 3.0 88 28 6 24.1 100.22     Mostly Cloudy
03:00 Legend Double Dagger 4.9 2.1 82 27 11 24.1 100.21     LegendNANA
04:00 Legend Double Dagger 4.7 0.8 76 29 16 24.1 100.28     LegendNANA
05:00 Legend Double Dagger 4.4 0.9 78 28 13 24.1 100.34     Cloudy
06:00 Legend Double Dagger 3.7 0.1 77 30 12 24.1 100.41     LegendNANA
07:00 Legend Double Dagger 2.6 -0.3 81 27 17 24.1 100.45     LegendNANA
08:00 Legend Double Dagger 3.5 -0.2 77 27 17 24.1 100.52     Clear
09:00 Legend Double Dagger 5.2 0.4 71 30 11 24.1 100.58     LegendNANA
10:00 Legend Double Dagger 6.1 0.7 68 30 17 24.1 100.66     LegendNANA
11:00 Legend Double Dagger 6.9 0.6 64 31 19 24.1 100.74     Mainly Clear
12:00 Legend Double Dagger 6.4 0.5 66 32 22 24.1 100.83     LegendNANA
13:00 Legend Double Dagger 6.4 -0.6 61 32 22 24.1 100.93     LegendNANA
14:00 Legend Double Dagger 6.4 -1.0 59 33 18 24.1 101.02     Mainly Clear
15:00 Legend Double Dagger 5.8 -1.1 61 33 13 24.1 101.19     LegendNANA
16:00 Legend Double Dagger 5.7 -1.7 59 33 18 24.1 101.36     LegendNANA
17:00 Legend Double Dagger 4.0 -0.6 72 30 19 24.1 101.49     Mostly Cloudy
18:00 Legend Double Dagger 3.4 -0.4 76 30 12 24.1 101.60     LegendNANA
19:00 Legend Double Dagger 3.1 -1.5 72 30 10 24.1 101.71     LegendNANA
20:00 Legend Double Dagger 3.0 -1.6 72 31 11 24.1 101.80     Cloudy
21:00 Legend Double Dagger 2.4 -2.0 73 33 9 24.1 101.88     LegendNANA
22:00 Legend Double Dagger 2.8 -1.8 72 33 10 24.1 101.92     LegendNANA
23:00 Legend Double Dagger 2.6 -1.6 74 30 8 24.1 101.98     Cloudy

Notes on Data Quality.

Legend

  • E = Estimated
  • M = Missing
  • NA = Not Available
  • ‡ = Partner data that is not subject to review by the National Climate Archives
Date modified: